Sigfox identifier Datetime Temperature Humidity SNR
0039388F 2018-10-09 09:21:38 20.6 37 14.6
0039388F 2018-10-09 08:19:48 20.6 41 14.5
0039388F 2018-10-09 07:17:58 20.6 41 14.4
0039388F 2018-10-09 06:16:07 20.6 40 13.9
0039388F 2018-10-09 05:14:15 20.6 40 13.5
0039388F 2018-10-09 02:08:41 20.6 39 12.3
0039388F 2018-10-09 01:06:51 20.6 39 12.3
0039388F 2018-10-09 00:05:01 20.6 39 11.8
0039388F 2018-10-08 23:03:11 20.6 39 11.7
0039388F 2018-10-08 20:59:32 20.6 38 11.6
0039388F 2018-10-08 18:55:55 20.6 38 11.2
0039388F 2018-10-08 17:54:03 20.6 38 11.2
0039388F 2018-10-08 16:52:08 20.6 38 11.3
0039388F 2018-10-08 15:50:18 20.6 38 11.3
0039388F 2018-10-08 14:48:26 20.5 38 11.2
0039388F 2018-10-08 13:46:36 20.4 38 11.2
0039388F 2018-10-08 12:44:46 20.4 38 10.3
0039388F 2018-10-08 06:33:36 20.4 38 10.5
0039388F 2018-10-08 05:31:43 20.4 38 10.5
0039388F 2018-10-08 04:29:51 20.4 38 10.5
0039388F 2018-10-08 02:26:08 20.4 38 10.4
0039388F 2018-10-08 01:24:13 20.4 39 10.5
0039388F 2018-10-08 00:22:21 20.4 39 10.7
0039388F 2018-10-07 23:20:29 20.5 39 11
0039388F 2018-10-07 22:18:36 20.5 39 11
0039388F 2018-10-07 21:16:43 20.5 39 11.1
0039388F 2018-10-07 18:11:07 20.6 39 11.2
0039388F 2018-10-07 17:09:17 20.6 39 11.2
0039388F 2018-10-07 16:07:20 20.6 39 11.2
0039388F 2018-10-07 15:05:32 20.6 39 11.1
0039388F 2018-10-07 11:59:56 20.6 39 10.9
0039388F 2018-10-07 10:58:03 20.6 39 11
0039388F 2018-10-07 09:56:08 20.6 39 11
0039388F 2018-10-07 08:54:17 20.6 39 11
0039388F 2018-10-07 07:52:28 20.6 39 10.9
0039388F 2018-10-07 06:50:31 20.6 39 10.9
0039388F 2018-10-07 05:48:41 20.6 39 10.8
0039388F 2018-10-07 04:46:48 20.7 39 17.1
0039388F 2018-10-07 02:43:02 20.8 39 17.1
0039388F 2018-10-07 01:41:13 20.8 39 17.1
0039388F 2018-10-06 23:37:23 20.8 40 17.1
0039388F 2018-10-06 21:33:41 20.8 40 17.6
0039388F 2018-10-06 20:31:47 20.8 40 17.5
0039388F 2018-10-06 18:28:05 20.8 40 17.5
0039388F 2018-10-06 17:26:10 20.8 40 17.8
0039388F 2018-10-06 16:24:19 20.8 40 17.8
0039388F 2018-10-06 14:20:38 20.9 40 18
0039388F 2018-10-06 11:14:57 20.8 40 18
0039388F 2018-10-06 10:13:07 20.8 40 18.3
0039388F 2018-10-06 09:11:12 20.9 40 18.8
0039388F 2018-10-06 08:09:24 20.9 40 19.3
0039388F 2018-10-06 07:07:31 21 40 19.3
0039388F 2018-10-06 06:05:40 21 40 19.6
0039388F 2018-10-06 05:03:51 21 40 19.7
0039388F 2018-10-06 04:01:59 21 40 19.8
0039388F 2018-10-06 03:00:06 21 40 20
0039388F 2018-10-06 01:58:16 21 41 20.2
0039388F 2018-10-06 00:56:24 21 41 20.2
0039388F 2018-10-05 22:52:47 21 41 20.4
0039388F 2018-10-05 21:50:54 21 41 20.5
0039388F 2018-10-05 19:47:10 21.1 41 20.6
0039388F 2018-10-05 18:45:15 21.2 40 20.7
0039388F 2018-10-05 17:43:25 21.1 40 18.8
0039388F 2018-10-05 16:41:33 21.1 40 18.8
0039388F 2018-10-05 15:39:39 21.1 39 18.9
0039388F 2018-10-05 14:37:47 21.2 39 19
0039388F 2018-10-05 13:35:56 21 38 18.7
0039388F 2018-10-05 12:34:07 21 37 18.8
0039388F 2018-10-05 11:32:17 21 37 18.8
0039388F 2018-10-05 10:30:25 20.8 34 18.5
0039388F 2018-10-05 09:28:31 20.7 33 18.5
0039388F 2018-10-05 08:26:40 20.6 31 18.3
0039388F 2018-10-05 07:24:47 20.6 31 18.3
0039388F 2018-10-05 06:22:52 20.6 30 18.2
0039388F 2018-10-05 05:21:02 20.6 30 17.7
0039388F 2018-10-05 04:19:06 20.6 30 17
0039388F 2018-10-05 03:17:16 20.6 31 17
0039388F 2018-10-05 02:15:28 20.6 31 16.3
0039388F 2018-10-05 01:13:40 20.6 31 16.1
0039388F 2018-10-05 00:11:51 20.8 31 16.1
0039388F 2018-10-04 23:09:58 20.8 31 17.2
0039388F 2018-10-04 22:08:06 20.8 31 17.3
0039388F 2018-10-04 21:06:18 20.8 31 17.5
0039388F 2018-10-04 20:04:28 20.8 31 17
0039388F 2018-10-04 19:02:38 20.8 31 17.2
0039388F 2018-10-04 18:00:50 20.7 31 16.7
0039388F 2018-10-04 15:57:10 20.6 31 16.7
0039388F 2018-10-04 14:55:20 20.6 32 16.7
0039388F 2018-10-04 13:53:27 20.4 32 16.8
0039388F 2018-10-04 10:47:54 20.2 34 16.8
0039388F 2018-10-04 09:46:01 20.2 34 16.9
0039388F 2018-10-04 08:44:09 20.2 35 16.8
0039388F 2018-10-04 07:42:16 20.2 36 16.7
0039388F 2018-10-04 06:40:20 20.2 37 16.8
0039388F 2018-10-04 05:38:25 20.2 38 16.9
0039388F 2018-10-04 04:36:29 20.2 38 16.9
0039388F 2018-10-04 03:34:35 20.3 39 16.9
0039388F 2018-10-04 02:32:43 20.3 39 16.9
0039388F 2018-10-04 01:30:53 20.3 39 16.7
0039388F 2018-10-04 00:29:01 20.4 40 16.8
0039388F 2018-10-03 23:27:09 20.4 40 16.7
0039388F 2018-10-03 22:25:18 20.4 41 16.7
0039388F 2018-10-03 21:23:32 20.4 41 16.7
0039388F 2018-10-03 20:21:38 20.5 41 16.8
0039388F 2018-10-03 18:17:51 20.6 41 16.7
0039388F 2018-10-03 17:15:57 20.6 43 15
0039388F 2018-10-03 16:14:02 20.8 43 14.3
0039388F 2018-10-03 15:12:10 20.7 43 13.8
0039388F 2018-10-03 14:10:18 20.6 43 14.1
0039388F 2018-10-03 13:08:26 20.5 41 14
0039388F 2018-10-03 12:06:35 20.6 40 14.1
0039388F 2018-10-03 11:04:43 20.6 41 14.1
0039388F 2018-10-03 09:01:01 20.2 39 14.1
0039388F 2018-10-03 07:59:12 20.2 39 13.9
0039388F 2018-10-03 06:57:20 20.2 40 13.5
0039388F 2018-10-03 05:55:28 20.2 40 13.3
0039388F 2018-10-03 04:53:33 20.3 40 13.4
0039388F 2018-10-03 03:51:37 20.3 40 13.4
0039388F 2018-10-03 02:49:42 20.4 41 13.1
0039388F 2018-10-03 01:47:48 20.4 41 13
0039388F 2018-10-03 00:45:54 20.4 41 12.8
0039388F 2018-10-02 23:43:58 20.4 40 12.7
0039388F 2018-10-02 22:42:03 20.4 40 12.5
0039388F 2018-10-02 21:40:07 20.4 40 12.4
0039388F 2018-10-02 20:38:11 20.4 40 12.1
0039388F 2018-10-02 19:36:14 20.4 40 12.1
0039388F 2018-10-02 18:34:18 20.6 40 12.3
0039388F 2018-10-02 17:32:21 20.7 40 12.2
0039388F 2018-10-02 16:30:26 20.7 40 11.9
0039388F 2018-10-02 15:28:29 20.6 39 11.9
0039388F 2018-10-02 14:26:33 20.6 39 12
0039388F 2018-10-02 13:24:41 20.6 40 11.6
0039388F 2018-10-02 12:22:45 20.7 42 11.5
0039388F 2018-10-02 11:20:51 20.6 43 11
0039388F 2018-10-02 10:18:59 20.5 43 10.4
0039388F 2018-10-02 09:17:06 20.4 44 10.3
0039388F 2018-10-02 08:15:11 20.2 41 10.1
0039388F 2018-10-02 07:13:17 20.2 43 10.2
0039388F 2018-10-02 06:11:22 20.4 43 10.4
0039388F 2018-10-02 05:09:30 20.3 43 10.5
0039388F 2018-10-02 04:07:35 20.4 43 10.7
0039388F 2018-10-02 03:05:42 20.4 43 10
0039388F 2018-10-02 02:03:47 20.4 44 10.1
0039388F 2018-10-02 01:01:50 20.4 44 9.9
0039388F 2018-10-01 23:59:57 20.4 43 10.2
0039388F 2018-10-01 22:58:01 20.4 43 10.6
0039388F 2018-10-01 21:56:06 20.4 43 10.8
0039388F 2018-10-01 20:54:12 20.4 43 10.4
0039388F 2018-10-01 19:52:16 20.4 43 10.1
0039388F 2018-10-01 18:50:18 20.2 44 11
0039388F 2018-10-01 17:48:19 20 44 13.1
0039388F 2018-10-01 16:46:19 17.6 59 0